Time,TemperatureF,DewpointF,PressureIn,WindDirection,WindDirectionDegrees,WindSpeedMPH,WindSpeedGustMPH,Humidity,HourlyPrecipIn,Conditions,Clouds,dailyrainin,SoftwareType,DateUTC
2013-09-11 00:05:00,76.1,67.0,30.81,East,84,0.0,-999.0,73,-99.99,,,0.00,weatherlink.com 1.10,2013-09-11 05:05:00,
2013-09-11 00:20:00,76.0,67.0,30.81,East,84,0.0,-999.0,73,-99.99,,,0.00,weatherlink.com 1.10,2013-09-11 05:20:00,
2013-09-11 00:35:00,76.2,67.0,30.81,ESE,116,0.0,-999.0,73,-99.99,,,0.00,weatherlink.com 1.10,2013-09-11 05:35:00,
2013-09-11 00:50:00,76.0,67.0,30.82,ESE,114,0.0,-999.0,73,-99.99,,,0.00,weatherlink.com 1.10,2013-09-11 05:50:00,
2013-09-11 01:05:00,75.9,67.0,30.81,ESE,114,0.0,-999.0,73,-99.99,,,0.00,weatherlink.com 1.10,2013-09-11 06:05:00,
2013-09-11 01:20:00,75.7,66.0,30.81,ESE,114,0.0,-999.0,73,-99.99,,,0.00,weatherlink.com 1.10,2013-09-11 06:20:00,
2013-09-11 01:35:00,75.6,66.0,30.82,ESE,114,0.0,-999.0,73,-99.99,,,0.00,weatherlink.com 1.10,2013-09-11 06:35:00,
2013-09-11 01:50:00,75.3,66.0,30.81,ESE,114,0.0,-999.0,73,-99.99,,,0.00,weatherlink.com 1.10,2013-09-11 06:50:00,
2013-09-11 02:05:00,75.2,66.0,30.81,ESE,114,0.0,-999.0,73,-99.99,,,0.00,weatherlink.com 1.10,2013-09-11 07:05:00,
2013-09-11 02:20:00,75.0,66.0,30.81,ESE,114,0.0,-999.0,73,-99.99,,,0.00,weatherlink.com 1.10,2013-09-11 07:20:00,
2013-09-11 02:35:00,74.9,66.0,30.81,ESE,114,0.0,-999.0,73,-99.99,,,0.00,weatherlink.com 1.10,2013-09-11 07:35:00,
2013-09-11 02:50:00,75.0,66.0,30.81,ESE,114,0.0,-999.0,73,-99.99,,,0.00,weatherlink.com 1.10,2013-09-11 07:50:00,
2013-09-11 03:05:00,74.9,66.0,30.81,ESE,114,0.0,-999.0,73,-99.99,,,0.00,weatherlink.com 1.10,2013-09-11 08:05:00,
2013-09-11 03:20:00,74.9,66.0,30.81,ESE,114,0.0,-999.0,73,-99.99,,,0.00,weatherlink.com 1.10,2013-09-11 08:20:00,
2013-09-11 03:36:00,74.8,66.0,30.81,ESE,114,0.0,-999.0,73,-99.99,,,0.00,weatherlink.com 1.10,2013-09-11 08:36:00,
2013-09-11 03:51:00,74.8,66.0,30.81,ESE,114,0.0,-999.0,73,-99.99,,,0.00,weatherlink.com 1.10,2013-09-11 08:51:00,
2013-09-11 04:06:00,74.6,65.0,30.81,ESE,114,0.0,-999.0,73,-99.99,,,0.00,weatherlink.com 1.10,2013-09-11 09:06:00,
2013-09-11 04:21:00,74.5,66.0,30.81,ESE,114,0.0,-999.0,74,-99.99,,,0.00,weatherlink.com 1.10,2013-09-11 09:21:00,
2013-09-11 04:36:00,74.5,66.0,30.81,ESE,114,0.0,-999.0,74,-99.99,,,0.00,weatherlink.com 1.10,2013-09-11 09:36:00,
2013-09-11 04:51:00,74.4,66.0,30.81,ESE,114,0.0,-999.0,74,-99.99,,,0.00,weatherlink.com 1.10,2013-09-11 09:51:00,
2013-09-11 05:06:00,74.3,66.0,30.81,ESE,114,0.0,-999.0,74,-99.99,,,0.00,weatherlink.com 1.10,2013-09-11 10:06:00,
2013-09-11 05:21:00,73.4,65.0,30.81,ESE,114,0.0,-999.0,74,-99.99,,,0.00,weatherlink.com 1.10,2013-09-11 10:21:00,
2013-09-11 05:36:00,73.7,65.0,30.81,ESE,113,1.0,-999.0,74,-99.99,,,0.00,weatherlink.com 1.10,2013-09-11 10:36:00,
2013-09-11 05:51:00,73.9,65.0,30.81,ESE,113,0.0,-999.0,74,-99.99,,,0.00,weatherlink.com 1.10,2013-09-11 10:51:00,
2013-09-11 06:06:00,74.1,65.0,30.82,ESE,113,0.0,-999.0,74,-99.99,,,0.00,weatherlink.com 1.10,2013-09-11 11:06:00,
2013-09-11 06:21:00,74.0,65.0,30.82,ESE,113,1.0,-999.0,74,-99.99,,,0.00,weatherlink.com 1.10,2013-09-11 11:21:00,
2013-09-11 06:36:00,74.1,65.0,30.82,ESE,112,2.0,-999.0,74,-99.99,,,0.00,weatherlink.com 1.10,2013-09-11 11:36:00,
2013-09-11 06:51:00,74.1,65.0,30.82,ESE,111,0.0,-999.0,74,-99.99,,,0.00,weatherlink.com 1.10,2013-09-11 11:51:00,
2013-09-11 07:06:00,74.1,65.0,30.82,ESE,111,1.0,-999.0,74,-99.99,,,0.00,weatherlink.com 1.10,2013-09-11 12:06:00,
2013-09-11 07:21:00,74.1,65.0,30.82,ESE,111,0.0,-999.0,74,-99.99,,,0.00,weatherlink.com 1.10,2013-09-11 12:21:00,
2013-09-11 07:36:00,74.4,66.0,30.82,ESE,103,0.0,-999.0,75,-99.99,,,0.00,weatherlink.com 1.10,2013-09-11 12:36:00,
2013-09-11 07:51:00,75.0,66.0,30.82,East,96,0.0,-999.0,74,-99.99,,,0.00,weatherlink.com 1.10,2013-09-11 12:51:00,
2013-09-11 08:06:00,75.5,67.0,30.83,East,96,1.0,-999.0,74,-99.99,,,0.00,weatherlink.com 1.10,2013-09-11 13:06:00,
2013-09-11 08:21:00,76.1,67.0,30.84,NE,53,2.0,-999.0,74,-99.99,,,0.00,weatherlink.com 1.10,2013-09-11 13:21:00,
2013-09-11 08:36:00,76.4,68.0,30.84,NE,49,3.0,-999.0,74,-99.99,,,0.00,weatherlink.com 1.10,2013-09-11 13:36:00,
2013-09-11 08:51:00,77.1,68.0,30.84,ENE,61,1.0,-999.0,73,-99.99,,,0.00,weatherlink.com 1.10,2013-09-11 13:51:00,
2013-09-11 09:06:00,78.4,69.0,30.84,NNE,28,2.0,-999.0,72,-99.99,,,0.00,weatherlink.com 1.10,2013-09-11 14:06:00,
2013-09-11 09:36:00,79.0,69.0,30.85,East,86,1.0,-999.0,72,-99.99,,,0.00,weatherlink.com 1.10,2013-09-11 14:36:00,
2013-09-11 09:51:00,79.7,70.0,30.85,ENE,61,3.0,-999.0,71,-99.99,,,0.00,weatherlink.com 1.10,2013-09-11 14:51:00,
2013-09-11 10:06:00,80.8,71.0,30.86,East,82,5.0,-999.0,71,-99.99,,,0.00,weatherlink.com 1.10,2013-09-11 15:06:00,
2013-09-11 10:21:00,83.0,72.0,30.86,East,84,1.0,-999.0,70,-99.99,,,0.00,weatherlink.com 1.10,2013-09-11 15:21:00,
2013-09-11 10:36:00,84.7,73.0,30.85,East,82,2.0,-999.0,69,-99.99,,,0.00,weatherlink.com 1.10,2013-09-11 15:36:00,
2013-09-11 10:51:00,85.7,74.0,30.85,ENE,78,2.0,-999.0,67,-99.99,,,0.00,weatherlink.com 1.10,2013-09-11 15:51:00,
2013-09-11 11:06:00,85.3,73.0,30.85,ESE,109,4.0,-999.0,66,-99.99,,,0.00,weatherlink.com 1.10,2013-09-11 16:06:00,
2013-09-11 11:21:00,88.3,73.0,30.85,ENE,67,8.0,-999.0,60,-99.99,,,0.00,weatherlink.com 1.10,2013-09-11 16:21:00,
2013-09-11 11:36:00,89.1,72.0,30.85,NW,322,1.0,-999.0,58,-99.99,,,0.00,weatherlink.com 1.10,2013-09-11 16:36:00,
2013-09-11 11:51:00,88.3,73.0,30.85,East,95,4.0,-999.0,61,-99.99,,,0.00,weatherlink.com 1.10,2013-09-11 16:51:00,
2013-09-11 12:06:00,88.3,73.0,30.84,ENE,71,0.0,-999.0,60,-99.99,,,0.00,weatherlink.com 1.10,2013-09-11 17:06:00,
2013-09-11 12:21:00,90.1,72.0,30.84,ESE,103,4.0,-999.0,56,-99.99,,,0.00,weatherlink.com 1.10,2013-09-11 17:21:00,
2013-09-11 12:36:00,90.8,71.0,30.83,NE,53,5.0,-999.0,53,-99.99,,,0.00,weatherlink.com 1.10,2013-09-11 17:36:00,
2013-09-11 12:51:00,89.8,70.0,30.83,ENE,71,3.0,-999.0,52,-99.99,,,0.00,weatherlink.com 1.10,2013-09-11 17:51:00,
2013-09-11 13:06:00,90.0,70.0,30.82,East,87,3.0,-999.0,52,-99.99,,,0.00,weatherlink.com 1.10,2013-09-11 18:06:00,
2013-09-11 13:21:00,91.3,72.0,30.82,East,84,4.0,-999.0,53,-99.99,,,0.00,weatherlink.com 1.10,2013-09-11 18:21:00,
2013-09-11 13:36:00,91.3,70.0,30.81,ESE,122,4.0,-999.0,50,-99.99,,,0.00,weatherlink.com 1.10,2013-09-11 18:36:00,
2013-09-11 13:51:00,91.5,70.0,30.80,ENE,67,0.0,-999.0,50,-99.99,,,0.00,weatherlink.com 1.10,2013-09-11 18:51:00,
2013-09-11 14:06:00,90.4,68.0,30.79,ESE,105,1.0,-999.0,48,-99.99,,,0.00,weatherlink.com 1.10,2013-09-11 19:06:00,
2013-09-11 14:21:00,91.7,70.0,30.79,NE,54,6.0,-999.0,49,-99.99,,,0.00,weatherlink.com 1.10,2013-09-11 19:21:00,
2013-09-11 14:36:00,91.2,69.0,30.79,NE,49,4.0,-999.0,49,-99.99,,,0.00,weatherlink.com 1.10,2013-09-11 19:36:00,
2013-09-11 14:51:00,91.8,69.0,30.79,NNE,17,2.0,-999.0,48,-99.99,,,0.00,weatherlink.com 1.10,2013-09-11 19:51:00,
2013-09-11 15:06:00,93.0,69.0,30.78,ENE,76,5.0,-999.0,45,-99.99,,,0.00,weatherlink.com 1.10,2013-09-11 20:06:00,
2013-09-11 15:21:00,94.1,69.0,30.77,ESE,121,0.0,-999.0,44,-99.99,,,0.00,weatherlink.com 1.10,2013-09-11 20:21:00,
2013-09-11 15:36:00,95.9,68.0,30.76,NE,45,5.0,-999.0,40,-99.99,,,0.00,weatherlink.com 1.10,2013-09-11 20:36:00,
2013-09-11 15:51:00,95.8,67.0,30.76,East,84,5.0,-999.0,39,-99.99,,,0.00,weatherlink.com 1.10,2013-09-11 20:51:00,
2013-09-11 16:06:00,93.8,66.0,30.76,ENE,71,5.0,-999.0,40,-99.99,,,0.00,weatherlink.com 1.10,2013-09-11 21:06:00,
2013-09-11 16:21:00,93.6,65.0,30.75,East,81,4.0,-999.0,39,-99.99,,,0.00,weatherlink.com 1.10,2013-09-11 21:21:00,
2013-09-11 16:37:00,95.2,67.0,30.75,East,86,6.0,-999.0,40,-99.99,,,0.00,weatherlink.com 1.10,2013-09-11 21:37:00,
2013-09-11 16:52:00,95.6,67.0,30.75,ENE,70,5.0,-999.0,39,-99.99,,,0.00,weatherlink.com 1.10,2013-09-11 21:52:00,
2013-09-11 17:07:00,94.8,67.0,30.74,ENE,59,5.0,-999.0,40,-99.99,,,0.00,weatherlink.com 1.10,2013-09-11 22:07:00,
2013-09-11 17:22:00,93.0,67.0,30.73,ESE,119,0.0,-999.0,42,-99.99,,,0.00,weatherlink.com 1.10,2013-09-11 22:22:00,
2013-09-11 17:36:00,92.2,67.0,30.74,East,85,4.0,-999.0,44,-99.99,,,0.00,weatherlink.com 1.10,2013-09-11 22:36:00,
2013-09-11 17:51:00,92.3,68.0,30.73,East,94,3.0,-999.0,45,-99.99,,,0.00,weatherlink.com 1.10,2013-09-11 22:51:00,
2013-09-11 18:06:00,92.2,68.0,30.73,ENE,69,1.0,-999.0,45,-99.99,,,0.00,weatherlink.com 1.10,2013-09-11 23:06:00,
2013-09-11 18:21:00,92.7,68.0,30.73,NE,40,3.0,-999.0,45,-99.99,,,0.00,weatherlink.com 1.10,2013-09-11 23:21:00,
2013-09-11 18:36:00,92.1,69.0,30.73,East,90,6.0,-999.0,47,-99.99,,,0.00,weatherlink.com 1.10,2013-09-11 23:36:00,
2013-09-11 18:51:00,91.7,67.0,30.73,ENE,65,4.0,-999.0,44,-99.99,,,0.00,weatherlink.com 1.10,2013-09-11 23:51:00,
2013-09-11 19:06:00,90.8,68.0,30.74,NE,53,4.0,-999.0,47,-99.99,,,0.00,weatherlink.com 1.10,2013-09-12 00:06:00,
2013-09-11 19:21:00,90.1,68.0,30.74,ENE,75,3.0,-999.0,48,-99.99,,,0.00,weatherlink.com 1.10,2013-09-12 00:21:00,
2013-09-11 19:37:00,89.3,68.0,30.75,East,87,4.0,-999.0,50,-99.99,,,0.00,weatherlink.com 1.10,2013-09-12 00:37:00,
2013-09-11 19:52:00,88.5,68.0,30.75,East,97,2.0,-999.0,51,-99.99,,,0.00,weatherlink.com 1.10,2013-09-12 00:52:00,
2013-09-11 20:07:00,87.6,68.0,30.76,East,97,0.0,-999.0,52,-99.99,,,0.00,weatherlink.com 1.10,2013-09-12 01:07:00,
2013-09-11 20:22:00,86.8,68.0,30.76,East,97,0.0,-999.0,53,-99.99,,,0.00,weatherlink.com 1.10,2013-09-12 01:22:00,
2013-09-11 20:37:00,85.7,68.0,30.76,East,97,0.0,-999.0,55,-99.99,,,0.00,weatherlink.com 1.10,2013-09-12 01:37:00,
2013-09-11 20:52:00,84.2,68.0,30.76,East,97,0.0,-999.0,58,-99.99,,,0.00,weatherlink.com 1.10,2013-09-12 01:52:00,
2013-09-11 21:07:00,83.0,68.0,30.76,East,97,0.0,-999.0,60,-99.99,,,0.00,weatherlink.com 1.10,2013-09-12 02:07:00,
2013-09-11 21:22:00,83.0,69.0,30.77,ESE,103,1.0,-999.0,62,-99.99,,,0.00,weatherlink.com 1.10,2013-09-12 02:22:00,
2013-09-11 21:37:00,83.5,70.0,30.77,SE,138,2.0,-999.0,63,-99.99,,,0.00,weatherlink.com 1.10,2013-09-12 02:37:00,
2013-09-11 21:52:00,83.4,70.0,30.77,SSE,164,0.0,-999.0,65,-99.99,,,0.00,weatherlink.com 1.10,2013-09-12 02:52:00,
2013-09-11 22:07:00,82.9,70.0,30.78,SSE,164,0.0,-999.0,66,-99.99,,,0.00,weatherlink.com 1.10,2013-09-12 03:07:00,
2013-09-11 22:22:00,82.6,71.0,30.78,East,86,0.0,-999.0,67,-99.99,,,0.00,weatherlink.com 1.10,2013-09-12 03:22:00,
2013-09-11 22:37:00,81.9,70.0,30.78,East,86,0.0,-999.0,68,-99.99,,,0.00,weatherlink.com 1.10,2013-09-12 03:37:00,
2013-09-11 22:52:00,80.9,70.0,30.79,East,86,0.0,-999.0,69,-99.99,,,0.00,weatherlink.com 1.10,2013-09-12 03:52:00,
2013-09-11 23:07:00,80.1,70.0,30.79,East,86,0.0,-999.0,70,-99.99,,,0.00,weatherlink.com 1.10,2013-09-12 04:07:00,
2013-09-11 23:22:00,79.9,70.0,30.79,East,86,0.0,-999.0,71,-99.99,,,0.00,weatherlink.com 1.10,2013-09-12 04:22:00,
2013-09-11 23:37:00,79.8,70.0,30.79,East,85,0.0,-999.0,71,-99.99,,,0.00,weatherlink.com 1.10,2013-09-12 04:37:00,
2013-09-11 23:52:00,79.3,69.0,30.79,East,85,0.0,-999.0,71,-99.99,,,0.00,weatherlink.com 1.10,2013-09-12 04:52:00,